KBKFKASE

Guest
Details From KBKF - BUCKLEY AFB
To KASE - Aspen Pitkin Co Sardy Fld
Flight Number -
Tags generated
Created
Modified
Stats Distance 113 nm / 210 km
Max Altitude 2,700 ft / 823 m
Waypoints 3
Social Downloads 0
Likes 0
Share VATSIM

Download

Looking for another format? Having issues loading an existing format? Contact us
Advertisement - Login to hide

Notes

Basic altitude profile: - Ascent Rate: 2500ft/min - Ascent Speed: 250kts - Cruise Altitude: 35000ft - Cruise Speed: 320kts - Descent Rate: 1500ft/min - Descent Speed: 250kts Options: - Use NATs: yes - Use PACOTS: yes - Use low airways: no - Use high airways: yes

Route

KBKF DBL KASE

ID Type Via Altitude Latitude Longitude Leg Dist Tot Dist Heading (true) Name
O KBKF APT - 0 ft / 0 m 39.70176˚ -104.75196˚ - 0 nm - BUCKLEY AFB
DBL DME - 2,700 ft / 823 m 39.43934˚ -106.89468˚ 100 nm 100 nm 262° / 260° RED TABLE VOR-DME
O KASE APT - 0 ft / 0 m 39.22316˚ -106.86885˚ 13 nm 113 nm 175° / 175° Aspen Pitkin Co Sardy Fld

Altitude Profile

Advertisement - Login to hide

KBKF

Details ICAO KBKF (BKF)
Name BUCKLEY AFB
Region United States
Timezone America/Denver (UTC-7.0)
Stats Elevation 5,662 ft / 1,726 m (AMSL)
Location 39.701758° -104.751961°
Runways 1
Magnetic Variation 8.089° E

METAR

KBKF 162058Z 05004KT 10SM FEW150 BKN220 09/M12 A2978 RMK AO2A SLP059 T00851120 57020

Decode

TAF

Not found

Departure Runways

ID Width Length Bearing (true) Bearing (mag) Surface Threshold Offset Overrun Length
14 150 ft / 46 m 11,015 ft / 3,357 m 151.17° 143.08° Asphalt 0 ft / 0 m 750 ft / 229 m
32 150 ft / 46 m 11,015 ft / 3,357 m 331.18° 323.09° Asphalt 0 ft / 0 m 1,000 ft / 305 m

KASE

Details ICAO KASE (ASE)
Name Aspen Pitkin Co Sardy Fld
Region United States
Timezone America/Denver (UTC-7.0)
Stats Elevation 7,820 ft / 2,384 m (AMSL)
Location 39.223164° -106.868847°
Runways 1
Magnetic Variation 9.095° E

METAR

KASE 162053Z 34004KT 10SM CLR 01/M10 A2976 RMK AO2 SLP074 T00061100 55011

Decode

TAF

KASE 161731Z 1618/1718 VRB03KT P6SM SCT130 BKN200 FM162000 34005KT P6SM SCT130 BKN200 FM170200 21004KT P6SM BKN130 FM171200 VRB03KT P6SM BKN100

Decode

Destination Runways

ID Width Length Bearing (true) Bearing (mag) Surface Threshold Offset Overrun Length
15 100 ft / 30 m 7,011 ft / 2,137 m 159.71° 150.61° Asphalt 0 ft / 0 m 499 ft / 152 m
33 100 ft / 30 m 7,011 ft / 2,137 m 339.71° 330.61° Asphalt 0 ft / 0 m 0 ft / 0 m

Approach Navaids

Runway Type Ident Frequency Range Bearing (true) Bearing (mag) Slope Elevation
15 Localiser IPKN 108.50 MHz 25 nm / 46 km 312.00° 302.90° - 10,768 ft / 3,282 m (AMSL)
15 Localiser IASE 111.15 MHz 18 nm / 33 km 159.71° 150.62° - 7,832 ft / 2,387 m (AMSL)
15 DME IASE 111.15 MHz 18 nm / 33 km - - - 7,830 ft / 2,387 m (AMSL)

Popular Alternatives